Regional Weather Roundup
Issued by NWS

Home | Current Version | Previous Version | Text Only | Print | Product List | Glossary On
Versions: 1 2 3 4 5 6 7 8 9 10 11 12 13 14 15 16 17 18 19 20 21 22 23 24 25 26 27 28 29 30 31 32 33 34 35 36 37 38 39 40 41 42 43 44 45 46 47 48 49 50
000
ASUS44 KEWX 301003
RWRTX
SOUTH TEXAS REGIONAL WEATHER ROUNDUP
NATIONAL WEATHER SERVICE AUSTIN/SAN ANTONIO TX
500 AM CDT TUE MAY 30 2017

NOTE: "FAIR" INDICATED FEW OR NO CLOUDS BELOW 12,000 FEET WITH NO
SIGNIFICANT WEATHER AND/OR OBSTRUCTIONS TO VISIBILITY.

* - THESE STATIONS ARE NOT NWS OR FAA STATIONS...AND ARE NOT SUBJECT
    TO NWS AND FAA QUALITY CONTROL.

TXZ171-172-183>190-301100-
TEXAS HILL COUNTRY AND EDWARDS PLATEAU

CITY           SKY/WX    TMP DP  RH WIND       PRES   REMARKS
JUNCTION       MOCLDY    70  66  87 CALM      30.08S
*LLANO         CLOUDY    70  66  88 CALM      30.09F
BURNET         CLOUDY    68  64  87 NE5       30.08F
*HORSESHOE BAY NOT AVBL
*KERRVILLE     MOCLDY    67  66  96 CALM      30.07F
*FREDERICKSBRG CLOUDY    69  65  89 CALM      30.07F
*ROCKSPRINGS     N/A    N/A N/A N/A MISG        N/A
*BOERNE STAGE  PTCLDY    64  63  94 CALM      30.08R
*CASTROVILLE   MOCLDY    70  69  96 CALM      30.07R
HONDO          CLOUDY    73  69  87 CALM      30.06R
*UVALDE        MOCLDY    69  68  95 CALM      30.06R
DEL RIO        CLOUDY    73  67  81 E9        30.00S
LAUGHLIN AFB   NOT AVBL
CARRIZO SPRGS  CLEAR     72  70  94 SE6       30.01S
*EAGLE PASS    NOT AVBL
$$

TXZ173-191>194-202-209-217>225-228-301100-
CENTRAL AND SOUTH CENTRAL TEXAS

CITY           SKY/WX    TMP DP  RH WIND       PRES   REMARKS
GEORGETOWN     CLOUDY    68  63  83 CALM      30.05F
AUSTIN/BERGSTM MOCLDY    68  67  96 CALM      30.04S
AUSTIN/MABRY   CLOUDY    71  67  87 CALM      30.05S
*AUSTIN/EXEC   CLOUDY    70  68  94 CALM      30.05S
*LAGO VISTA    MOCLDY    70  67  92 CALM      30.07S
SAN MARCOS       N/A    N/A N/A N/A MISG        N/A
NEW BRAUNFELS  PTCLDY    71  68  90 CALM      30.02F
RANDOLPH AFB   NOT AVBL
PT SAN ANTONIO NOT AVBL
SAN ANTONIO    MOCLDY    71  67  87 E3        30.04S
STINSON FIELD  CLEAR     72  68  87 CALM      30.02R
*LA GRANGE     CLEAR     69  69  97 CALM      30.02S
*GIDDINGS      CLEAR     66  64  94 CALM      30.05S
*GONZALES      CLEAR     70  70 100 NE3       30.02F
$$

TXZ163>164-176>182-195>201-210>213-226-227-235-301100-
SOUTHEAST TEXAS

CITY           SKY/WX    TMP DP  RH WIND       PRES   REMARKS
COLLEGE STN    CLEAR     70  69  97 E3        30.05R
*BRYAN         CLEAR     67  67 100 CALM      30.07R FOG
*CALDWELL      NOT AVBL
*CROCKETT        N/A    N/A N/A N/A MISG        N/A
*BRENHAM       CLEAR     68  67  97 N5        30.05S FOG
HUNTSVILLE     FOG       67  65  93 CALM      30.05R VSB 1/2
CONROE         FOG       67  66  97 CALM      30.04R VSB 1
HOUSTON BUSH   MOCLDY    71  69  93 N7        30.02R
HOUSTON HOBBY  CLEAR     72  69  90 N7        30.00R
*HOUSTON SW AP CLEAR     69  67  94 N3        30.01R
PEARLAND       PTCLDY    74  70  87 N5        30.01R
HOUSTON HOOKS  CLEAR     70  69  97 CALM      30.03R
ELLINGTON FLD  PTCLDY    73  70  88 N5        30.02R
SUGAR LAND     MOCLDY    71  70  96 N6        30.01R
*HOUSTON EXEC  CLEAR     68  68 100 N3        30.04R FOG
*CLEVELAND MUN CLOUDY    69  68  97 CALM      30.04R FOG
*WHARTON       PTCLDY    69  67  94 NW3       30.02S
*COLUMBUS      FAIR      69  67  94 CALM      30.04F
*EAGLE LAKE    SUNNY     70  70 100 N3        30.03R
$$

TXZ214>216-236>238-301100-
THE UPPER TEXAS COAST

CITY           SKY/WX    TMP DP  RH WIND       PRES   REMARKS
*ORANGE        CLOUDY    72  67  84 E8        30.03S
PORT ARTHUR    MOCLDY    72  66  81 E12       30.00S
GALVESTON      PTCLDY    78  73  84 NE8       29.98S
ANGLETON       PTCLDY    71  69  93 N6        29.99R
*BAY CITY      PTCLDY    70  70  99 N3        29.99S
PALACIOS       PTCLDY    68  68 100 N8        29.99S
$$

TXZ229>234-239>247-301100-
TEXAS COASTAL BEND AND RIO GRANDE PLAINS

CITY           SKY/WX    TMP DP  RH WIND       PRES   REMARKS
VICTORIA       PTCLDY    71  68  90 N5        30.02R
*BEEVILLE      PTCLDY   N/A N/A N/A N3        30.00S
ROCKPORT       MOCLDY    75  72  90 N5        29.99R
*PORT ARANSAS  MOCLDY    75  72  90 NW5       29.98S
*PORT LAVACA   PTCLDY    70  70 100 CALM      30.00S
*INGLESIDE     MOCLDY    73  71  95 MISG      29.99S
CORPUS CHRISTI PTCLDY    70  70 100 NW5       29.99S
CORPUS NAS     PTCLDY    74  72  93 W5        29.98S
*ROBSTOWN      PTCLDY    72  72 100 N5        30.00R
ALICE          PTCLDY    69  68  96 SW6       30.00R
KINGSVILLE NAS NOT AVBL
COTULLA        PTCLDY    73  68  84 E3        30.02R
*FAITH RANCH   PTCLDY    73  70  88 SE5       30.02R
LAREDO         CLEAR     71  68  90 E8        30.02R
$$

TXZ248>255-301100-
DEEP SOUTH TEXAS

CITY           SKY/WX    TMP DP  RH WIND       PRES   REMARKS
BROWNSVILLE    CLEAR     73  69  87 N5        29.97S
PORT ISABEL    CLEAR     73  70  90 N5        29.97R
*SOUTH PADRE   NOT AVBL
HARLINGEN      CLEAR     69  69 100 CALM      29.97R
*HEBBRONVILLE  PTCLDY    67  66  94 CALM      30.02S
MCALLEN        PTCLDY    75  68  78 CALM      29.99R
*WESLACO       PTCLDY    70  68  93 CALM      29.97S
FALFURRIAS     PTCLDY    71  69  93 CALM      29.99R
EDINBURG       CLEAR     71  68  90 CALM      29.99R
*ZAPATA        CLEAR     71  70  96 CALM      29.99S
$$

TXZ213>215-236>238-242>244-246-247-251-254-255-301100-
CMAN STATIONS

STATION/POSITION TIME  TEMP    WIND        PRES    WAVE
                       AIR SEA DIR/SP/G            HT/PER
                 (UTC) (F)     (DEG/KT/KT) (MB)    (FT/S)
SABINE PASS      0930   71 81   60/ 10/ 14 1017.0
SEA RIM ST PARK  0900   71      60/  9/ 11 1016.0
NORTH JETTY/GLS  0930      79   50/ 16/ 19 1014.6
EAGLE POINT      0930   76 79   80/ 11/ 14 1015.3
MORGANS POINT    0930   73 80   10/  5/  6 1015.6
MISSION/ARANSAS  0900   76     360/  6     1016.0
PORT O`CONNOR    0930   77      10/  9/ 10 1014.9
PORT ARANSAS     0900   78 80   70/  5/  5 1015.2
MALAQUITE BEACH  0930   76 80  310/  2/  3 1015.7
BAFFIN BAY       0930   77 81              1015.1
PORT ISABEL      0930   78 83   20/  5/  6 1014.7
$$

GMZ080-GMZ150>470-301100-
OFFSHORE BUOY REPORTS

STATION/POSITION TIME  TEMP    WIND        PRES    WAVE
                       AIR SEA DIR/SP/G            HT/PER
                 (UTC) (F)     (DEG/KT/KT) (MB)    (FT/S)
$$




USA.gov is the U.S. government's official web portal to all federal, state and local government web resources and services.